| time (UTC) | temp F | wind direction | speed MPH | gust MPH | rain 1hr in | rain 24hr in | rain mn in | humidity % | barometer mb |
| 20260905223054 | 58 | 0.0 | 0.0 | 0.00 | 0.08 | 0.00 | 88 | 1013.4 | |
| 20260905221610 | 58 | 0.0 | 0.0 | 0.00 | 0.08 | 0.00 | 88 | 1013.1 | |
| 20260905220059 | 58 | 0.0 | 0.0 | 0.00 | 0.08 | 0.00 | 88 | 1013.0 | |
| 20260905214600 | 57 | 0.0 | 0.0 | 0.00 | 0.08 | 0.08 | 88 | 1012.5 | |
| 20260905213101 | 57 | 0.0 | 0.0 | 0.00 | 0.08 | 0.08 | 89 | 1012.2 | |
| 20260905211600 | 57 | 0.0 | 0.0 | 0.00 | 0.08 | 0.08 | 88 | 1012.1 | |
| 20260905210057 | 57 | 0.0 | 0.0 | 0.00 | 0.08 | 0.08 | 86 | 1011.8 | |
| 20260905204550 | 57 | 0.0 | 0.0 | 0.00 | 0.10 | 0.08 | 85 | 1011.6 | |
| 20260905203056 | 57 | 0.0 | 0.0 | 0.00 | 0.10 | 0.08 | 85 | 1011.5 | |
| 20260905201612 | 57 | 0.0 | 0.0 | 0.00 | 0.10 | 0.08 | 85 | 1011.2 | |
| 20260905200054 | 58 | 0.0 | 0.0 | 0.00 | 0.10 | 0.08 | 82 | 1011.0 | |
| 20260905194550 | 58 | 0.0 | 0.0 | 0.00 | 0.18 | 0.08 | 83 | 1010.8 | |
| 20260905193108 | 58 | 0.0 | 0.0 | 0.00 | 0.18 | 0.08 | 82 | 1010.9 | |
| 20260905191553 | 58 | 0.0 | 0.0 | 0.00 | 0.18 | 0.08 | 81 | 1010.6 | |
| 20260905190051 | 59 | 0.0 | 0.0 | 0.00 | 0.18 | 0.08 | 79 | 1011.0 | |
| 20260905184602 | 59 | 0.0 | 0.0 | 0.00 | 0.18 | 0.08 | 78 | 1010.6 | |
| 20260905183054 | 59 | 0.0 | 0.0 | 0.00 | 0.18 | 0.08 | 77 | 1010.4 | |
| 20260905181608 | 59 | 0.0 | 0.0 | 0.00 | 0.18 | 0.08 | 77 | 1010.5 | |
| 20260905180052 | 59 | 0.0 | 0.0 | 0.00 | 0.18 | 0.08 | 76 | 1010.3 | |
| 20260905174603 | 59 | 0.0 | 0.0 | 0.00 | 0.18 | 0.08 | 76 | 1010.4 | |
| 20260905173056 | 59 | 0.0 | 0.0 | 0.00 | 0.18 | 0.08 | 76 | 1010.3 | |
| 20260905171552 | 60 | 0.0 | 0.0 | 0.00 | 0.18 | 0.08 | 76 | 1010.1 | |
| 20260905170050 | 60 | 0.0 | 0.0 | 0.00 | 0.18 | 0.08 | 75 | 1010.0 | |
| 20260905164557 | 60 | 0.0 | 0.0 | 0.00 | 0.18 | 0.08 | 77 | 1009.8 | |
| 20260905163054 | 60 | 0.0 | 0.0 | 0.00 | 0.18 | 0.08 | 77 | 1009.8 | |
| 20260905161559 | 61 | 0.0 | 0.0 | 0.00 | 0.18 | 0.08 | 75 | 1009.5 | |
| 20260905160058 | 62 | 0.0 | 0.0 | 0.00 | 0.18 | 0.08 | 74 | 1009.3 | |
| 20260905154602 | 62 | 0.0 | 0.0 | 0.00 | 0.18 | 0.08 | 72 | 1009.2 | |
| 20260905153052 | 61 | 0.0 | 0.0 | 0.00 | 0.18 | 0.08 | 73 | 1009.2 | |
| 20260905151605 | 62 | 0.0 | 0.0 | 0.00 | 0.18 | 0.08 | 73 | 1008.9 | |
| 20260905150057 | 62 | 0.0 | 0.0 | 0.00 | 0.18 | 0.08 | 71 | 1008.9 | |
| 20260905144553 | 62 | 0.0 | 0.0 | 0.00 | 0.30 | 0.08 | 75 | 1008.9 | |
| 20260905143052 | 61 | 0.0 | 0.0 | 0.00 | 0.30 | 0.08 | 76 | 1008.8 | |
| 20260905141602 | 61 | 0.0 | 0.0 | 0.00 | 0.30 | 0.08 | 77 | 1008.8 | |
| 20260905140057 | 61 | 0.0 | 0.0 | 0.00 | 0.30 | 0.08 | 77 | 1008.6 | |
| 20260905134554 | 62 | 0.0 | 0.0 | 0.00 | 1.03 | 0.08 | 76 | 1008.6 | |
| 20260905133050 | 62 | 0.0 | 0.0 | 0.00 | 1.03 | 0.08 | 74 | 1008.6 | |
| 20260905131608 | 62 | 0.0 | 0.0 | 0.00 | 1.03 | 0.08 | 74 | 1008.4 | |
| 20260905130056 | 62 | 0.0 | 0.0 | 0.00 | 1.03 | 0.08 | 73 | 1008.1 | |
| 20260905124556 | 62 | 0.0 | 0.0 | 0.00 | 1.14 | 0.08 | 76 | 1008.1 | |
| 20260905123050 | 62 | 0.0 | 0.0 | 0.00 | 1.14 | 0.08 | 75 | 1008.1 | |
| 20260905121555 | 62 | 0.0 | 0.0 | 0.00 | 1.14 | 0.08 | 76 | 1007.9 | |
| 20260905120054 | 62 | 0.0 | 0.0 | 0.00 | 1.14 | 0.08 | 75 | 1007.8 | |
| 20260905114558 | 61 | 0.0 | 0.0 | 0.00 | 1.21 | 0.08 | 76 | 1007.8 | |
| 20260905113053 | 62 | 0.0 | 0.0 | 0.00 | 1.21 | 0.08 | 76 | 1007.7 | |
| 20260905111604 | 61 | 0.0 | 0.0 | 0.00 | 1.21 | 0.08 | 78 | 1007.8 | |
| 20260905104613 | 59 | 0.0 | 0.0 | 0.00 | 1.25 | 0.08 | 82 | 1007.6 | |
| 20260905103052 | 58 | 0.0 | 0.0 | 0.00 | 1.25 | 0.08 | 87 | 1007.2 | |
| 20260905101554 | 60 | 0.0 | 0.0 | 0.00 | 1.24 | 0.07 | 82 | 1007.1 | |
| 20260905100106 | 61 | 0.0 | 0.0 | 0.00 | 1.24 | 0.07 | 78 | 1006.9 | |
| 20260905094554 | 60 | 0.0 | 0.0 | 0.00 | 1.27 | 0.07 | 79 | 1007.0 | |
| 20260905093054 | 60 | 0.0 | 0.0 | 0.00 | 1.27 | 0.07 | 80 | 1006.8 | |
| 20260905091608 | 60 | 0.0 | 0.0 | 0.00 | 1.27 | 0.07 | 81 | 1006.7 | |
| 20260905084614 | 60 | 0.0 | 0.0 | 0.00 | 1.26 | 0.07 | 84 | 1006.4 | |
| 20260905083100 | 60 | 0.0 | 0.0 | 0.00 | 1.26 | 0.07 | 83 | 1006.5 | |
| 20260905081605 | 59 | 0.0 | 0.0 | 0.00 | 1.26 | 0.07 | 83 | 1006.3 | |
| 20260905080052 | 59 | 0.0 | 0.0 | 0.00 | 1.26 | 0.07 | 83 | 1006.2 | |
| 20260905074621 | 59 | 0.0 | 0.0 | 0.00 | 1.26 | 0.07 | 85 | 1006.1 | |
| 20260905073059 | 59 | 0.0 | 0.0 | 0.00 | 1.26 | 0.07 | 86 | 1005.9 | |
| 20260905071555 | 58 | 0.0 | 0.0 | 0.00 | 1.26 | 0.07 | 88 | 1005.8 | |
| 20260905070108 | 58 | 0.0 | 0.0 | 0.00 | 1.26 | 0.07 | 88 | 1005.6 | |
| 20260905064552 | 58 | 0.0 | 0.0 | 0.00 | 1.26 | 0.07 | 88 | 1005.5 | |
| 20260905063059 | 57 | 0.0 | 0.0 | 0.00 | 1.26 | 0.07 | 89 | 1005.5 | |
| 20260905061613 | 57 | 0.0 | 0.0 | 0.00 | 1.26 | 0.07 | 89 | 1005.3 | |
| 20260905060054 | 57 | 0.0 | 0.0 | 0.00 | 1.26 | 0.07 | 90 | 1005.1 | |
| 20260905054557 | 56 | 0.0 | 0.0 | 0.00 | 1.26 | 0.07 | 91 | 1004.9 | |
| 20260905053056 | 56 | 0.0 | 0.0 | 0.02 | 1.26 | 0.07 | 92 | 1004.9 | |
| 20260905051556 | 56 | 0.0 | 0.0 | 0.02 | 1.26 | 0.07 | 92 | 1004.7 | |
| 20260905050052 | 56 | 0.0 | 0.0 | 0.02 | 1.26 | 0.07 | 93 | 1004.6 | |
| 20260905044554 | 56 | 0.0 | 0.0 | 0.02 | 1.26 | 0.07 | 93 | 1004.5 | |
| 20260905043058 | 56 | 0.0 | 0.0 | 0.00 | 1.24 | 0.04 | 91 | 1004.3 | |
| 20260905041559 | 56 | 0.0 | 0.0 | 0.00 | 1.24 | 0.04 | 91 | 1004.4 | |
| 20260905040056 | 56 | 0.0 | 0.0 | 0.00 | 1.24 | 0.04 | 91 | 1004.2 | |
| 20260905034557 | 56 | 0.0 | 0.0 | 0.00 | 1.24 | 0.04 | 90 | 1004.2 | |
| 20260905033059 | 56 | 0.0 | 0.0 | 0.00 | 1.24 | 0.04 | 91 | 1003.9 | |
| 20260905031600 | 56 | 0.0 | 0.0 | 0.00 | 1.24 | 0.04 | 91 | 1003.8 | |
| 20260905030058 | 56 | 0.0 | 0.0 | 0.00 | 1.24 | 0.04 | 91 | 1003.7 | |
| 20260905024554 | 56 | 0.0 | 0.0 | 0.00 | 1.24 | 0.04 | 93 | 1003.2 | |
| 20260905023054 | 56 | 0.0 | 0.0 | 0.00 | 1.24 | 0.04 | 94 | 1003.1 | |
| 20260905021600 | 56 | 0.0 | 0.0 | 0.00 | 1.24 | 0.04 | 95 | 1002.9 | |
| 20260905020100 | 56 | 0.0 | 0.0 | 0.04 | 1.24 | 0.04 | 95 | 1002.7 | |
| 20260905014554 | 56 | 0.0 | 0.0 | 0.04 | 1.24 | 0.04 | 94 | 1002.6 | |
| 20260905013102 | 56 | 0.0 | 0.0 | 0.04 | 1.24 | 0.04 | 95 | 1002.5 | |
| 20260905011559 | 56 | 0.0 | 0.0 | 0.04 | 1.24 | 0.04 | 95 | 1002.5 | |
| 20260905010106 | 56 | 0.0 | 0.0 | 0.00 | 1.19 | 0.00 | 94 | 1002.4 | |
| 20260905004554 | 56 | 0.0 | 0.0 | 0.00 | 1.19 | 0.00 | 94 | 1002.3 | |
| 20260905003051 | 56 | 0.0 | 0.0 | 0.00 | 1.19 | 0.00 | 92 | 1002.2 | |
| 20260905001557 | 56 | 0.0 | 0.0 | 0.00 | 1.19 | 0.00 | 92 | 1002.1 | |
| 20260905000053 | 56 | 0.0 | 0.0 | 0.00 | 1.19 | 0.00 | 92 | 1002.2 | |
| 20260904234553 | 56 | 0.0 | 0.0 | 0.00 | 1.19 | 0.00 | 91 | 1002.1 | |
| 20260904233050 | 57 | 0.0 | 0.0 | 0.00 | 1.19 | 0.00 | 91 | 1002.1 | |
| 20260904231559 | 57 | 0.0 | 0.0 | 0.00 | 1.19 | 0.00 | 91 | 1002.0 | |
| 20260904224606 | 56 | 0.0 | 0.0 | 0.00 | 1.19 | 0.00 | 92 | 1001.9 |